Location: Tucson
(32.2217°N, 110.9265°W)
Time: 12:29:20
(UTC-07:00)

N. Korean satellite - Visible Passes

Search period start: 21 September 2017 00:00
Search period end: 01 October 2017 00:00
Orbit: 461 x 515 km, 97.2° (Epoch: 20 September)

Date Brightness Start Highest point End Pass type
(mag) Time Alt. Az. Time Alt. Az. Time Alt. Az.
21 Sep 8.6 19:04:45 10° SSW 19:08:11 33° W 19:11:37 10° NNW visible
22 Sep 6.9 18:41:13 10° S 18:44:57 75° WSW 18:48:42 10° NNW visible
24 Sep 9.8 19:29:46 10° SW 19:32:09 16° W 19:34:32 10° NW visible
25 Sep 8.7 19:05:29 10° SSW 19:08:52 32° W 19:12:14 10° NNW visible
26 Sep 7.0 18:41:54 10° S 18:45:37 72° W 18:49:19 10° NNW visible
28 Sep 9.9 19:30:31 10° SW 19:32:48 15° W 19:35:03 10° WNW visible
29 Sep 8.7 19:06:09 10° SSW 19:09:29 31° W 19:12:48 10° NW visible
30 Sep 7.0 18:42:32 10° S 18:46:14 69° W 18:49:54 10° NNW visible
